Location: ?????????
(55.6553°N, 38.9075°E)
Time: 18:52:42
(UTC+00:00)

Cosmos 1842 - Pass Details

Date: 18 October 2019
Orbit: 521 x 539 km, 82.5° (Epoch: 20 November)

Event Time Altitude Azimuth Distance (km) Brightness Sun altitude
Exits shadow 02:26:05 22° 246° (WSW) 1,206 4.5 -13.9°
Maximum altitude 02:27:51 32° 291° (WNW) 936 4.0 -13.7°
Drops below altitude 10° 02:31:27 10° 357° (N) 1,805 5.9 -13.2°
Sets 02:33:47 0° 7° (N) 2,698 7.0 -12.9°
